Location: Monroe
(41.9160°N, 83.3980°W)
Time: 22:00:52
(UTC-04:00)

Amateur Radio Satellites - All Passes

Search period start: 16 October 2017 21:30
Search period end: 17 October 2017 21:30
Location: Monroe, 41.9160°N, 83.3980°W

Satellite Date Start Highest point End Downlink Frequencies (MHz)
Time Altitude Azimuth
STRAND 1 16 Oct 21:38:04 21:43:05 54° 289° (WNW) 21:48:06 437.568
ZACube-1 16 Oct 21:41:15 21:45:28 36° 263° (W) 21:49:44 437.345
AAUSAT CUBESAT 2 16 Oct 21:45:03 21:48:01 19° 267° (W) 21:50:59 437.432
UWE-3 16 Oct 21:55:47 21:58:34 16° 270° (W) 22:01:22 435.000/436.395/437.385
YUBILEINY 16 Oct 21:56:52 22:05:41 77° 81° (E) 22:14:31 435.215
O/OREOS (USA 219) 16 Oct 21:58:10 22:02:23 39° 106° (ESE) 22:06:39 437.305
DELFI C3 16 Oct 22:16:02 22:19:55 76° 76° (ENE) 22:23:50 145.870
BEESAT 2 16 Oct 22:23:29 22:25:59 16° 41° (NE) 22:28:27 435.950
Oscar 11 16 Oct 22:27:04 22:30:11 19° 267° (W) 22:33:18 .
Max Valier Satellite 16 Oct 22:28:51 22:32:35 78° 78° (ENE) 22:36:20 145.860
EO-88 16 Oct 22:28:56 22:32:31 54° 74° (ENE) 22:36:06 145.990 - 145.960
UNISAT 6 16 Oct 22:34:27 22:38:02 22° 93° (E) 22:41:32 437.425
BEESAT 3 16 Oct 22:49:27 22:53:26 73° 56° (NE) 22:57:20 437.485
TIGRISAT 16 Oct 22:50:07 22:54:10 29° 95° (E) 22:58:06 435.000
FO-29 16 Oct 22:55:42 23:02:22 75° 286° (WNW) 23:09:48 435.910
AO-85 16 Oct 22:58:59 23:02:50 27° 47° (NE) 23:06:54 145.980
PRISM 16 Oct 23:21:05 23:24:35 27° 96° (E) 23:28:06 437.425
LO-87 16 Oct 23:32:13 23:35:34 39° 73° (ENE) 23:38:57 145.935 - 145.965
O/OREOS (USA 219) 16 Oct 23:38:21 23:41:56 22° 304° (NW) 23:45:34 437.305
SPROUT 16 Oct 23:46:51 23:48:08 11° 61° (ENE) 23:49:25 437.525
ESTCUBE 1 16 Oct 23:48:40 23:52:58 47° 72° (ENE) 23:57:17 437.505/2401.250
YUBILEINY 16 Oct 23:55:13 00:01:29 22° 281° (W) 00:07:46 435.215
VELOX 1 16 Oct 23:59:48 00:01:13 11° 61° (ENE) 00:02:38 145.980
BEESAT 2 17 Oct 00:00:07 00:04:09 66° 239° (WSW) 00:08:05 435.950
UNISAT 6 17 Oct 00:10:32 00:14:51 38° 290° (WNW) 00:19:03 437.425
EO-79 17 Oct 00:23:35 00:25:34 13° 91° (E) 00:27:31 145.935-145.965
TIGRISAT 17 Oct 00:26:46 00:30:46 29° 292° (WNW) 00:34:41 435.000
POLYITAN 1 17 Oct 00:26:51 00:29:08 14° 91° (E) 00:31:24 437.675
AO-85 17 Oct 00:39:01 00:43:20 41° 243° (WSW) 00:47:57 145.980
FO-29 17 Oct 00:43:07 00:46:32 15° 303° (WNW) 00:50:07 435.910
QB50P2 17 Oct 00:45:45 00:49:20 25° 95° (E) 00:52:52 145.880/145.840
AIST 2D 17 Oct 00:51:18 00:54:47 82° 103° (ESE) 00:58:14 435.315
NANOSAT C BR1 17 Oct 00:53:20 00:56:51 24° 95° (E) 01:00:19 145.865
PRISM 17 Oct 00:56:23 00:59:45 25° 292° (WNW) 01:03:08 437.425
DUCHIFAT 1 17 Oct 01:06:16 01:10:01 30° 96° (E) 01:13:43 145.980
LO-87 17 Oct 01:07:34 01:09:10 12° 269° (W) 01:10:46 145.935 - 145.965
RS-15 17 Oct 01:09:07 01:19:51 38° 106° (ESE) 01:30:35 29.354- 29.394
50 SAT 17 Oct 01:15:11 01:17:12 16° 67° (ENE) 01:19:14 437.505
DX 1 17 Oct 01:17:17 01:20:21 19° 65° (ENE) 01:23:25 434.975-435.025
SPROUT 17 Oct 01:19:08 01:23:24 74° 258° (WSW) 01:27:42 437.525
ESTCUBE 1 17 Oct 01:27:08 01:30:01 17° 268° (W) 01:32:53 437.505/2401.250
BUGSAT 1 17 Oct 01:31:21 01:33:43 15° 91° (E) 01:36:04 437.445
VELOX 1 17 Oct 01:32:39 01:37:02 75° 258° (WSW) 01:41:25 145.980
UKube-1 17 Oct 01:49:17 01:52:52 26° 67° (ENE) 01:56:27 .
EO-79 17 Oct 01:57:27 02:01:39 55° 287° (WNW) 02:05:48 145.935-145.965
POLYITAN 1 17 Oct 02:01:03 02:05:12 50° 287° (WNW) 02:09:18 437.675
QB50P2 17 Oct 02:21:24 02:25:04 28° 291° (WNW) 02:28:41 145.880/145.840
NANOSAT C BR1 17 Oct 02:28:50 02:32:31 29° 291° (WNW) 02:36:09 145.865
DUCHIFAT 1 17 Oct 02:42:07 02:45:31 24° 293° (WNW) 02:48:55 145.980
50 SAT 17 Oct 02:46:32 02:49:19 26° 263° (W) 02:52:07 437.505
DX 1 17 Oct 02:52:11 02:56:14 40° 261° (W) 03:00:19 434.975-435.025
M-CUBED/EXP-1 PRIME 17 Oct 02:54:02 02:57:16 35° 104° (ESE) 03:00:42 437.505
ITUPSAT 1 17 Oct 02:57:29 03:00:58 20° 64° (ENE) 03:04:29 437.325
BUGSAT 1 17 Oct 03:05:14 03:09:20 48° 287° (WNW) 03:13:22 437.445
MOZHAYETS 4 17 Oct 03:05:41 03:09:26 25° 67° (ENE) 03:13:12
Gurwin Techsat 1B 17 Oct 03:11:43 03:16:57 55° 101° (E) 03:22:09 435.225
Oscar 19 17 Oct 03:12:08 03:17:18 80° 105° (ESE) 03:22:24 437.125/150
BEESAT 17 Oct 03:14:58 03:19:06 30° 67° (ENE) 03:23:14 436.000
RS-15 17 Oct 03:19:18 03:31:35 70° 308° (NW) 03:43:52 29.354- 29.394
UKube-1 17 Oct 03:25:06 03:28:47 28° 264° (W) 03:32:30 .
AO-7 17 Oct 04:20:24 04:27:51 35° 97° (E) 04:35:16 .
M-CUBED/EXP-1 PRIME 17 Oct 04:29:26 04:31:29 15° 298° (WNW) 04:33:36 437.505
ITUPSAT 1 17 Oct 04:33:49 04:38:27 47° 260° (W) 04:43:06 437.325
MOZHAYETS 4 17 Oct 04:42:12 04:46:25 34° 263° (W) 04:50:39
CUBESAT XI-V 17 Oct 04:42:30 04:47:01 53° 73° (ENE) 04:51:31 437.345
BEESAT 17 Oct 04:52:36 04:56:47 30° 264° (W) 05:01:00 436.000
Gurwin Techsat 1B 17 Oct 04:52:37 04:56:28 21° 298° (WNW) 05:00:18 435.225
Oscar 19 17 Oct 04:53:23 04:55:55 14° 301° (WNW) 04:58:26 437.125/150
KKS-1 17 Oct 05:01:17 05:04:56 26° 67° (ENE) 05:08:38 437.445
ITAMSAT 1 17 Oct 05:15:19 05:20:35 72° 103° (ESE) 05:25:47 435.822/435.867
NO-84 17 Oct 05:19:41 05:23:56 64° 136° (SE) 05:28:07 435.350 FM
RS-15 17 Oct 05:36:33 05:46:52 29° 337° (NNW) 05:57:03 29.354- 29.394
STARS 17 Oct 05:44:55 05:48:43 30° 68° (ENE) 05:52:34 437.465
DOVE 4 17 Oct 05:58:28 06:02:39 27° 95° (E) 06:06:58 437.250
AO-7 17 Oct 06:12:52 06:20:51 54° 296° (WNW) 06:28:49 .
CUBESAT XI-V 17 Oct 06:21:54 06:24:40 16° 269° (W) 06:27:27 437.345
O/OREOS (USA 219) 17 Oct 06:30:51 06:31:54 11° 48° (NE) 06:32:57 437.305
KKS-1 17 Oct 06:37:29 06:41:22 30° 263° (W) 06:45:17 437.445
LilacSat-2 17 Oct 06:47:13 06:49:47 17° 93° (E) 06:52:20 437.200
XW-2F 17 Oct 06:50:25 06:52:48 16° 93° (E) 06:55:11 145.980 - 146.000
KAITUO 1B 17 Oct 06:55:33 06:57:38 14° 92° (E) 06:59:42 145.475/437.950
ITAMSAT 1 17 Oct 06:56:20 06:59:25 16° 300° (WNW) 07:02:30 435.822/435.867
CUTE-I 17 Oct 06:57:34 07:01:41 22° 93° (E) 07:05:47 437.470
NO-84 17 Oct 06:58:00 07:01:38 27° 332° (NNW) 07:05:10 435.350 FM
XW-2D 17 Oct 06:59:10 07:02:12 23° 95° (E) 07:05:12 145.860 - 145.880
XW-2B 17 Oct 07:12:13 07:15:35 31° 97° (E) 07:18:56 145.730 - 145.750
NUDT-PHONESAT 17 Oct 07:15:25 07:18:26 24° 95° (E) 07:21:26 437.300
STRAND 1 17 Oct 07:15:59 07:20:18 28° 66° (ENE) 07:24:38 437.568
STARS 17 Oct 07:21:26 07:25:02 25° 265° (W) 07:28:42 437.465
XW-2C 17 Oct 07:34:58 07:38:42 64° 101° (E) 07:42:23 145.795 - 145.815
DOVE 4 17 Oct 07:35:53 07:40:19 36° 290° (WNW) 07:44:57 437.250
SO-50 17 Oct 07:51:51 07:55:24 23° 113° (ESE) 07:58:58 436.795
RS-15 17 Oct 07:55:16 08:04:50 25° 12° (NNE) 08:14:04 29.354- 29.394
O/OREOS (USA 219) 17 Oct 08:07:28 08:12:06 81° 67° (ENE) 08:16:41 437.305
HO-68 17 Oct 08:07:31 08:14:10 38° 97° (E) 08:20:45 435.675
AO-7 17 Oct 08:08:30 08:11:45 13° 318° (NW) 08:15:01 .
UWE-3 17 Oct 08:09:24 08:10:25 11° 88° (E) 08:11:26 435.000/436.395/437.385
XW-2A 17 Oct 08:16:31 08:17:01 10° 91° (E) 08:17:31 145.665 - 145.685
LilacSat-2 17 Oct 08:20:46 08:24:08 31° 289° (WNW) 08:27:26 437.200
XW-2F 17 Oct 08:23:39 08:27:00 32° 289° (WNW) 08:30:20 145.980 - 146.000
KAITUO 1B 17 Oct 08:28:21 08:31:45 35° 288° (WNW) 08:35:08 145.475/437.950
XW-2D 17 Oct 08:33:16 08:36:17 23° 291° (WNW) 08:39:16 145.860 - 145.880
CUTE 1.7 + AOD 2 17 Oct 08:35:19 08:39:29 64° 100° (E) 08:43:39 437.475
CUTE-I 17 Oct 08:36:48 08:41:58 49° 290° (WNW) 08:47:06 437.470
NO-84 17 Oct 08:38:13 08:40:10 13° 353° (N) 08:42:05 435.350 FM
XW-2B 17 Oct 08:46:59 08:49:31 18° 293° (WNW) 08:52:03 145.730 - 145.750
NUDT-PHONESAT 17 Oct 08:49:20 08:52:11 21° 291° (WNW) 08:54:59 437.300
SEEDS 17 Oct 08:49:49 08:53:55 56° 100° (E) 08:58:00 437.485
STRAND 1 17 Oct 08:54:37 08:59:19 36° 263° (W) 09:04:04 437.568
PCSat 17 Oct 08:56:29 09:00:20 20° 106° (ESE) 09:04:10 145.827
CUBEBUG 2 17 Oct 08:56:48 09:01:29 64° 100° (E) 09:06:00 437.445
YUBILEINY 17 Oct 09:05:55 09:10:57 17° 76° (ENE) 09:15:59 435.215
FO-29 17 Oct 09:09:31 09:14:27 46° 69° (ENE) 09:19:41 435.910
AO-73 17 Oct 09:09:45 09:13:15 23° 93° (E) 09:16:39 145.935
AAUSAT CUBESAT 2 17 Oct 09:25:05 09:29:10 61° 100° (E) 09:33:14 437.432
ZACube-1 17 Oct 09:28:59 09:33:12 42° 98° (E) 09:37:17 437.345
SO-50 17 Oct 09:31:24 09:35:37 40° 310° (NW) 09:39:52 436.795
UNISAT 6 17 Oct 09:33:31 09:36:57 21° 65° (ENE) 09:40:26 437.425
UWE-3 17 Oct 09:42:50 09:47:25 73° 285° (WNW) 09:51:49 435.000/436.395/437.385
XW-2A 17 Oct 09:46:46 09:49:56 40° 287° (WNW) 09:53:04 145.665 - 145.685
TIGRISAT 17 Oct 09:48:50 09:52:43 27° 67° (ENE) 09:56:38 435.000
HO-68 17 Oct 09:55:12 10:01:54 43° 295° (WNW) 10:08:34 435.675
RS-15 17 Oct 10:09:23 10:21:05 52° 44° (NE) 10:32:08 29.354- 29.394
PRISM 17 Oct 10:10:56 10:13:56 20° 66° (ENE) 10:16:57 437.425
Oscar 11 17 Oct 10:12:15 10:16:33 77° 101° (E) 10:20:50 .
CUTE 1.7 + AOD 2 17 Oct 10:13:08 10:14:46 12° 297° (WNW) 10:16:25 437.475
NO-84 17 Oct 10:16:34 10:18:57 15° 14° (NNE) 10:21:14 435.350 FM
SEEDS 17 Oct 10:27:07 10:29:07 13° 296° (WNW) 10:31:07 437.485
CUBEBUG 2 17 Oct 10:34:57 10:37:31 15° 298° (WNW) 10:40:02 437.445
PCSat 17 Oct 10:37:54 10:43:14 59° 303° (WNW) 10:48:37 145.827
AO-73 17 Oct 10:45:36 10:49:31 32° 291° (WNW) 10:53:20 145.935
FO-29 17 Oct 10:56:07 10:59:56 20° 269° (W) 11:03:54 435.910
YUBILEINY 17 Oct 10:57:41 11:06:23 87° 97° (E) 11:15:09 435.215
Tancredo 1 17 Oct 11:01:08 11:02:55 37° 329° (NNW) 11:04:43 437.200
AAUSAT CUBESAT 2 17 Oct 11:02:30 11:04:06 12° 297° (WNW) 11:05:42 437.432
ZACube-1 17 Oct 11:06:03 11:09:08 19° 295° (WNW) 11:12:10 437.345
UNISAT 6 17 Oct 11:08:58 11:13:20 42° 262° (W) 11:17:49 437.425
EO-79 17 Oct 11:17:20 11:18:35 11° 61° (ENE) 11:19:49 145.935-145.965
POLYITAN 1 17 Oct 11:20:30 11:22:13 12° 62° (ENE) 11:23:57 437.675
TIGRISAT 17 Oct 11:25:08 11:29:15 32° 264° (W) 11:33:27 435.000
AIST 2D 17 Oct 11:25:44 11:28:47 28° 72° (ENE) 11:31:51 435.315
DELFI C3 17 Oct 11:26:53 11:30:49 67° 284° (WNW) 11:34:44 145.870
EO-88 17 Oct 11:30:28 11:34:05 69° 102° (ESE) 11:37:41 145.990 - 145.960
Max Valier Satellite 17 Oct 11:31:57 11:35:39 78° 285° (WNW) 11:39:18 145.860
nSIGHT-1 17 Oct 11:35:13 11:37:55 25° 136° (SE) 11:40:38 .
QB50P2 17 Oct 11:38:49 11:42:00 21° 66° (ENE) 11:45:12 145.880/145.840
PRISM 17 Oct 11:45:21 11:48:59 32° 262° (W) 11:52:39 437.425
NANOSAT C BR1 17 Oct 11:45:54 11:48:59 20° 66° (ENE) 11:52:06 145.865
Oscar 11 17 Oct 11:51:03 11:52:03 11° 299° (WNW) 11:53:03 .
NO-84 17 Oct 11:53:28 11:57:10 48° 35° (NE) 12:00:31 435.350 FM
DUCHIFAT 1 17 Oct 11:58:21 12:01:44 24° 67° (ENE) 12:05:08 145.980
ISS 17 Oct 11:58:39 12:01:42 38° 138° (SE) 12:04:45 437.550
RS-15 17 Oct 12:22:21 12:33:36 53° 249° (WSW) 12:44:18 29.354- 29.394
BUGSAT 1 17 Oct 12:22:25 12:23:51 12° 61° (ENE) 12:25:17 437.445
PCSat 17 Oct 12:25:39 12:27:49 12° 324° (NW) 12:29:59 145.827
LO-87 17 Oct 12:31:35 12:35:07 47° 99° (E) 12:38:37 145.935 - 145.965
BEESAT 3 17 Oct 12:42:08 12:42:55 10° 108° (ESE) 12:43:41 437.485
EO-79 17 Oct 12:49:28 12:53:43 74° 258° (WSW) 12:58:00 145.935-145.965
Oscar 19 17 Oct 12:52:32 12:55:39 16° 61° (ENE) 12:58:46 437.125/150
POLYITAN 1 17 Oct 12:53:10 12:57:25 67° 258° (WSW) 13:01:43 437.675
Gurwin Techsat 1B 17 Oct 12:56:57 12:59:14 13° 58° (ENE) 13:01:31 435.225
YUBILEINY 17 Oct 12:58:19 13:04:23 20° 298° (WNW) 13:10:31 435.215
AIST 2D 17 Oct 12:59:43 13:02:00 16° 267° (W) 13:04:17 435.315
SPROUT 17 Oct 13:05:12 13:08:11 18° 93° (E) 13:11:09 437.525
nSIGHT-1 17 Oct 13:11:04 13:14:05 39° 333° (NNW) 13:17:08 .
QB50P2 17 Oct 13:13:37 13:17:33 35° 263° (W) 13:21:30 145.880/145.840
ESTCUBE 1 17 Oct 13:17:02 13:21:32 82° 282° (WNW) 13:25:59 437.505/2401.250
NANOSAT C BR1 17 Oct 13:20:30 13:24:25 37° 262° (W) 13:28:24 145.865
VELOX 1 17 Oct 13:22:55 13:26:09 20° 94° (E) 13:29:22 145.980
NO-84 17 Oct 13:31:40 13:34:10 18° 235° (SW) 13:36:32 435.350 FM
DUCHIFAT 1 17 Oct 13:33:29 13:37:14 30° 264° (W) 13:41:01 145.980
AO-7 17 Oct 13:33:48 13:36:38 12° 42° (NE) 13:39:27 .
ISS 17 Oct 13:35:16 13:38:13 31° 336° (NNW) 13:41:11 437.550
M-CUBED/EXP-1 PRIME 17 Oct 13:40:20 13:43:40 48° 69° (ENE) 13:46:53 437.505
BEESAT 2 17 Oct 13:52:10 13:54:59 19° 111° (ESE) 13:57:50 435.950
BUGSAT 1 17 Oct 13:54:27 13:58:35 69° 258° (WSW) 14:02:49 437.445
50 SAT 17 Oct 14:05:52 14:07:28 13° 93° (E) 14:09:03 437.505
LO-87 17 Oct 14:06:42 14:08:05 12° 296° (WNW) 14:09:29 145.935 - 145.965
BEESAT 3 17 Oct 14:15:52 14:19:52 71° 304° (NW) 14:23:53 437.485
Oscar 19 17 Oct 14:29:15 14:34:24 69° 258° (WSW) 14:39:33 437.125/150
Gurwin Techsat 1B 17 Oct 14:33:04 14:38:23 89° 75° (ENE) 14:43:44 435.225
DX 1 17 Oct 14:39:44 14:43:38 31° 97° (E) 14:47:32 434.975-435.025
SPROUT 17 Oct 14:40:12 14:44:14 39° 289° (WNW) 14:48:13 437.525
nSIGHT-1 17 Oct 14:48:59 14:51:01 16° 352° (N) 14:53:03 .
AO-85 17 Oct 14:53:53 14:57:41 58° 119° (ESE) 15:01:34 145.980
ITAMSAT 1 17 Oct 14:56:57 14:59:57 16° 60° (ENE) 15:02:59 435.822/435.867
VELOX 1 17 Oct 14:58:35 15:02:43 39° 290° (WNW) 15:06:50 145.980
UKube-1 17 Oct 15:10:51 15:15:00 43° 99° (E) 15:19:07 .
ISS 17 Oct 15:13:25 15:15:27 15° 356° (N) 15:17:28 437.550
AO-7 17 Oct 15:19:34 15:27:27 51° 63° (ENE) 15:35:22 .
BEESAT 2 17 Oct 15:28:37 15:32:25 41° 308° (NW) 15:36:17 435.950
50 SAT 17 Oct 15:36:55 15:39:54 31° 288° (WNW) 15:42:51 437.505
Tancredo 1 17 Oct 15:38:49 15:40:09 17° 25° (NNE) 15:41:29 437.200
BEESAT 3 17 Oct 15:57:18 15:58:09 11° 323° (NW) 15:59:02 437.485
DX 1 17 Oct 16:16:09 16:19:40 24° 293° (WNW) 16:23:10 434.975-435.025
Gurwin Techsat 1B 17 Oct 16:17:36 16:19:01 11° 272° (W) 16:20:25 435.225
SO-50 17 Oct 16:21:48 16:25:45 27° 46° (NE) 16:29:42 436.795
nSIGHT-1 17 Oct 16:25:59 16:28:13 17° 12° (NNE) 16:30:29 .
ITAMSAT 1 17 Oct 16:33:38 16:38:47 73° 256° (WSW) 16:44:01 435.822/435.867
ITUPSAT 1 17 Oct 16:33:44 16:38:18 42° 99° (E) 16:42:49 437.325
AO-85 17 Oct 16:36:00 16:38:27 16° 319° (NW) 16:40:57 145.980
MOZHAYETS 4 17 Oct 16:36:15 16:40:45 52° 100° (E) 16:45:11
CUBESAT XI-V 17 Oct 16:40:26 16:42:23 12° 90° (E) 16:44:19 437.345
UKube-1 17 Oct 16:47:45 16:50:40 18° 296° (WNW) 16:53:35 .
ISS 17 Oct 16:50:18 16:52:50 20° 16° (NNE) 16:55:23 437.550
BEESAT 17 Oct 16:51:26 16:56:12 65° 102° (ESE) 17:00:56 436.000
DOVE 4 17 Oct 17:05:03 17:08:22 23° 67° (ENE) 17:11:47 437.250
Tancredo 1 17 Oct 17:10:23 17:11:48 19° 222° (SW) 17:13:12 437.200
AO-7 17 Oct 17:12:51 17:20:23 38° 262° (W) 17:27:57 .
LilacSat-2 17 Oct 17:31:33 17:32:05 10° 63° (ENE) 17:32:37 437.200
XW-2D 17 Oct 17:41:47 17:43:37 13° 65° (ENE) 17:45:26 145.860 - 145.880
PCSat 17 Oct 17:42:45 17:46:51 21° 44° (NE) 17:50:55 145.827
XW-2B 17 Oct 17:54:17 17:56:51 17° 67° (ENE) 17:59:24 145.730 - 145.750
NUDT-PHONESAT 17 Oct 17:55:58 17:57:39 13° 65° (ENE) 17:59:20 437.300
nSIGHT-1 17 Oct 18:01:51 18:05:02 57° 32° (NNE) 18:08:11 .
SO-50 17 Oct 18:01:59 18:06:18 40° 243° (WSW) 18:10:40 436.795
ITUPSAT 1 17 Oct 18:12:10 18:15:50 22° 296° (WNW) 18:19:29 437.325
MOZHAYETS 4 17 Oct 18:14:33 18:17:28 17° 296° (WNW) 18:20:21
CUBESAT XI-V 17 Oct 18:15:37 18:20:11 65° 286° (WNW) 18:24:43 437.345
XW-2C 17 Oct 18:16:21 18:19:45 31° 71° (ENE) 18:23:08 145.795 - 145.815
CUTE-I 17 Oct 18:19:28 18:24:18 37° 68° (ENE) 18:29:10 437.470
ISS 17 Oct 18:26:25 18:29:41 84° 30° (NNE) 18:32:58 437.550
KKS-1 17 Oct 18:27:14 18:31:34 47° 100° (E) 18:35:54 437.445
BEESAT 17 Oct 18:30:44 18:33:25 15° 299° (WNW) 18:36:07 436.000
HO-68 17 Oct 18:36:59 18:43:01 31° 60° (ENE) 18:49:05 435.675
DOVE 4 17 Oct 18:42:21 18:45:57 29° 265° (W) 18:49:40 437.250
LilacSat-2 17 Oct 19:02:01 19:05:49 63° 259° (W) 19:09:38 437.200
XW-2F 17 Oct 19:03:48 19:07:35 70° 260° (W) 19:11:21 145.980 - 146.000
UWE-3 17 Oct 19:07:01 19:08:06 11° 60° (ENE) 19:09:12 435.000/436.395/437.385
KAITUO 1B 17 Oct 19:07:41 19:11:26 81° 259° (W) 19:15:10 145.475/437.950
STARS 17 Oct 19:09:14 19:13:37 54° 101° (E) 19:17:57 437.465
XW-2D 17 Oct 19:13:42 19:17:22 46° 261° (W) 19:21:03 145.860 - 145.880
PCSat 17 Oct 19:25:21 19:30:45 69° 244° (WSW) 19:36:07 145.827
XW-2B 17 Oct 19:27:18 19:30:46 33° 263° (W) 19:34:15 145.730 - 145.750
NUDT-PHONESAT 17 Oct 19:27:31 19:31:06 45° 261° (W) 19:34:42 437.300
CUTE 1.7 + AOD 2 17 Oct 19:27:53 19:31:56 45° 73° (ENE) 19:35:58 437.475
nSIGHT-1 17 Oct 19:38:54 19:41:01 16° 228° (SW) 19:43:06 .
SEEDS 17 Oct 19:41:29 19:45:22 39° 72° (ENE) 19:49:16 437.485
XW-2C 17 Oct 19:51:21 19:53:58 18° 267° (W) 19:56:37 145.795 - 145.815
CUBEBUG 2 17 Oct 19:54:27 19:58:57 53° 73° (ENE) 20:03:34 437.445
CUTE-I 17 Oct 19:59:50 20:04:23 28° 265° (W) 20:08:58 437.470
ISS 17 Oct 20:04:38 20:05:43 11° 231° (SW) 20:06:48 437.550
KKS-1 17 Oct 20:04:45 20:07:44 18° 296° (WNW) 20:10:44 437.445
AO-73 17 Oct 20:05:23 20:08:45 21° 66° (ENE) 20:12:07 145.935
AAUSAT CUBESAT 2 17 Oct 20:15:10 20:19:01 40° 72° (ENE) 20:22:51 437.432
XW-2A 17 Oct 20:17:24 20:20:46 60° 75° (ENE) 20:24:09 145.665 - 145.685
HO-68 17 Oct 20:23:22 20:30:21 56° 258° (WSW) 20:37:25 435.675
ZACube-1 17 Oct 20:24:30 20:28:39 35° 70° (ENE) 20:32:49 437.345
UWE-3 17 Oct 20:39:09 20:43:47 89° 257° (WSW) 20:48:29 435.000/436.395/437.385
STARS 17 Oct 20:46:52 20:49:29 16° 297° (WNW) 20:52:06 437.465
BEESAT 3 17 Oct 20:57:07 20:57:51 10° 36° (NE) 20:58:35 437.485
STRAND 1 17 Oct 21:04:05 21:09:16 75° 103° (ESE) 21:14:25 437.568
CUTE 1.7 + AOD 2 17 Oct 21:05:27 21:07:58 15° 268° (W) 21:10:30 437.475
Oscar 11 17 Oct 21:06:51 21:11:07 59° 74° (ENE) 21:15:24 .
YUBILEINY 17 Oct 21:07:33 21:15:53 45° 74° (ENE) 21:24:11 435.215
SEEDS 17 Oct 21:18:24 21:21:12 17° 268° (W) 21:24:00 437.485
